[[{"header":{"parameterUnit":"m.s-1","parameterCategory":1,"la1":30.2991,"la2":30.254,"lo1":-89.0895,"lo2":-89.0444,"dy":0.0017,"dx":0.0017,"nx":28,"ny":28,"refTime":"2024-06-10T09:00:00:Z","depth":0,"parameterNumber":2,"parameterNumberName":"U-component_of_WINDS"},"data":[0,0,0,0,0,0,0,0,0,0,0,0,0,0,0,0,0,0,0,0,0,0,0,0,0,0,0,0,0,0,0,0,0,0,0,0,0,0,0,0,0,0,0,0,0,0,0,0,0,0,0,0,0,0,0,0,0,0,3.2931,3.2932,0,3.3026,3.3027,3.3028,3.2954,3.2951,3.2947,3.2944,3.3043,3.3049,3.3054,0,0,0,0,0,0,0,0,0,0,0,0,0,3.2684,3.2689,3.293,3.2932,3.2933,3.3026,3.3027,3.3028,3.2954,3.295,3.2947,3.2943,3.3042,3.3048,3.3055,0,0,0,0,0,0,0,0,0,0,0,0,0,3.2786,3.2691,3.293,3.2907,3.2906,3.3025,3.3027,3.3028,3.2955,3.295,3.2946,3.2941,3.3039,3.3048,3.3056,3.3203,0,0,3.3082,3.3085,0,0,0,0,0,0,0,0,3.2781,3.2796,3.2909,3.2909,3.2908,3.2973,3.2976,3.3087,3.2956,3.2937,3.2944,3.2939,3.3024,3.3033,3.3062,3.3208,3.3212,3.3082,3.3087,3.3091,3.3093,0,0,0,0,0,0,0,3.2774,3.2791,3.2968,3.2911,3.291,3.2892,3.2901,3.2997,3.3006,3.2938,3.2933,3.2945,3.3023,3.3054,3.3064,3.3214,3.3082,3.309,3.3095,3.3098,3.3482,3.3487,0,0,0,0,0,0,3.2769,3.2786,3.2965,3.2971,3.2831,3.29,3.291,3.2957,3.3005,3.3007,3.2949,3.2941,3.3042,3.3054,3.3067,3.3239,3.3091,3.3099,3.3104,3.3477,3.3483,3.3488,0,0,0,0,0,0,3.2764,3.2786,3.2961,3.2877,3.2898,3.2909,3.2962,3.2961,3.2992,3.3013,3.3014,3.2979,3.3039,3.3055,3.3169,3.3242,3.3103,3.311,3.347,3.3478,3.3486,3.3588,0,0,0,0,0,0,3.2757,3.2784,3.2841,3.2879,3.2903,3.3062,3.2967,3.2967,3.3007,3.2998,3.3042,3.3044,3.3036,3.3157,3.3177,3.3251,3.3117,3.3464,3.3474,3.3483,3.3578,3.3598,3.3615,0,0,0,0,0,3.2749,3.2867,3.2844,3.2866,3.2974,3.3067,3.308,3.3068,3.3013,3.3069,3.3082,3.3043,3.3231,3.3169,3.3192,3.3269,3.3459,3.3471,3.3482,3.3569,3.3594,3.3615,0,0,0,0,0,0,3.2839,3.2872,3.2847,3.2981,3.3021,3.3054,3.3125,3.3095,3.3153,3.3141,3.3124,3.3135,3.3254,3.3273,3.3203,3.3412,3.3336,3.3353,3.3395,3.3418,3.3437,3.3428,3.3124,0,0,0,0,0,3.2874,3.2947,3.2972,3.3088,3.3109,3.3114,3.3154,3.3141,3.3182,3.3199,3.3221,3.3263,3.333,3.3376,3.344,3.3581,3.3588,3.3645,3.3664,3.3679,3.3693,3.3765,3.379,3.3526,3.3526,3.3526,0,0,3.2948,3.2975,3.3022,3.3106,3.3136,3.3211,3.3129,3.3213,3.3268,3.3212,3.332,3.3337,3.3383,3.351,3.3567,3.3529,3.3767,3.3694,3.3706,3.3711,3.3779,3.3804,3.3826,3.3534,3.3533,3.3532,0,0,3.312,3.3149,3.3247,3.3278,3.3323,3.3325,3.3349,3.3386,3.3395,3.3502,3.3461,3.3527,3.3646,3.3678,3.3711,3.3893,3.3858,3.3914,3.4011,3.4082,3.4102,3.4121,3.4182,3.4205,3.3929,3.3929,3.3929,0,3.3206,3.3317,3.3301,3.3387,3.3424,3.3376,3.3474,3.3505,3.357,3.3596,3.3554,3.3699,3.3727,3.3859,3.3903,3.3932,3.3957,3.3908,3.4101,3.4119,3.4136,3.4194,3.4218,3.3935,3.3935,3.3934,3.3933,0,3.3419,3.3497,3.357,3.3632,3.3678,3.377,3.3766,3.3815,3.3797,3.3803,3.3912,3.3943,3.4011,3.4042,3.4027,3.4172,3.4146,3.4103,3.4026,3.4167,3.4222,3.4244,3.3944,3.3942,3.394,3.3939,0,0,3.3651,3.37,3.3727,3.3753,3.3799,3.3859,3.3947,3.4013,3.4053,3.4099,3.4171,3.4272,3.423,3.4267,3.4255,3.4317,3.4455,3.4266,3.4266,3.4297,3.4613,3.4643,3.467,3.4433,3.4437,3.4441,3.4608,0,3.3822,3.3975,3.3963,3.4107,3.4177,3.4132,3.4208,3.4244,3.4252,3.4312,3.4321,3.4391,3.4333,3.4354,3.4414,3.4426,3.4518,3.4414,3.4498,3.4501,3.4485,3.4699,3.4732,3.4888,3.4629,3.4633,3.4636,0,3.4043,3.4094,3.4246,3.4278,3.4306,3.4376,3.4432,3.4491,3.453,3.4531,3.4571,3.4548,3.4636,3.4558,3.4678,3.4607,3.4641,3.4652,3.4657,3.4663,3.4575,3.4707,3.4938,3.496,3.467,3.4667,3.4665,0,3.4192,3.43,3.4403,3.4427,3.4468,3.4517,3.4537,3.4571,3.461,3.466,3.4685,3.4746,3.4778,3.4825,3.4818,3.4762,3.4938,3.4861,3.494,3.494,3.4977,3.4975,3.5214,3.5004,3.5004,3.5004,3.5003,0,3.4384,3.4477,3.447,3.4534,3.4636,3.462,3.4722,3.4736,3.4767,3.4831,3.4797,3.4858,3.4846,3.4907,3.4902,3.4999,3.5016,3.5017,3.5014,3.5019,3.5018,3.5039,3.5027,3.501,3.5008,3.5007,3.5006,0,3.4567,3.4567,3.4676,3.4705,3.4714,3.4788,3.4813,3.4872,3.4876,3.4958,3.4976,3.4983,3.5052,3.505,3.513,3.5126,3.5245,3.5232,3.5232,3.5228,3.5305,3.5297,3.5564,3.5597,3.5369,3.5371,3.5373,0,3.4688,3.4759,3.4794,3.4834,3.4856,3.4922,3.4961,3.4948,3.4989,3.5038,3.5091,3.5157,3.5208,3.5321,3.5333,3.5393,3.5378,3.5468,3.5387,3.5388,3.5375,3.537,3.5376,3.5483,3.5485,3.5487,3.5489,0,3.4902,3.4897,3.4954,3.5011,3.5057,3.5102,3.5142,3.5177,3.5168,3.5216,3.5286,3.5326,3.5405,3.547,3.5527,3.5547,3.5516,3.5515,3.5535,3.5539,3.5535,3.5535,3.5272,3.5508,3.5506,3.5505,3.5504,3.5503,3.5055,3.5114,3.5148,3.5211,3.524,3.5278,3.5334,3.5344,3.5402,3.5464,3.5454,3.5531,3.5566,3.5638,3.5663,3.5723,3.5691,3.5722,3.5729,3.5736,3.5743,3.5528,3.5733,3.5733,3.5732,3.5732,3.5732,0,3.5264,3.5282,3.5341,3.5398,3.5447,3.5414,3.5456,3.55,3.5568,3.5603,3.5653,3.5732,3.5794,3.581,3.587,3.5914,3.5901,3.593,3.5925,3.5929,3.577,3.5744,3.5939,3.5939,3.5939,3.5939,3.5939,3.5939,3.5378,3.5475,3.5474,3.5584,3.5602,3.5676,3.5703,3.5737,3.5764,3.5853,3.5904,3.5913,3.594,3.6001,3.6056,3.6059,3.6081,3.6115,3.6112,3.5962,3.5941,3.5921,3.5897,3.6121,3.6121,3.6266,3.6267,3.6268]},{"header":{"parameterUnit":"m.s-1","parameterCategory":1,"la1":30.2991,"la2":30.254,"lo1":-89.0895,"lo2":-89.0444,"dy":0.0017,"dx":0.0017,"nx":28,"ny":28,"refTime":"2024-06-10T09:00:00:Z","depth":0,"parameterNumber":3,"parameterNumberName":"V-component_of_WINDS"},"data":[0,0,0,0,0,0,0,0,0,0,0,0,0,0,0,0,0,0,0,0,0,0,0,0,0,0,0,0,0,0,0,0,0,0,0,0,0,0,0,0,0,0,0,0,0,0,0,0,0,0,0,0,0,0,0,0,0,0,2.0179,2.018,0,2.0262,2.0263,2.0264,2.0222,2.022,2.0218,2.0216,2.0302,2.0306,2.031,0,0,0,0,0,0,0,0,0,0,0,0,0,1.9984,1.9988,2.0179,2.018,2.0181,2.0262,2.0263,2.0264,2.0223,2.022,2.0218,2.0215,2.0301,2.0306,2.0311,0,0,0,0,0,0,0,0,0,0,0,0,0,2.0068,1.9989,2.0179,2.017,2.017,2.0262,2.0263,2.0264,2.0223,2.022,2.0217,2.0214,2.0299,2.0305,2.0311,2.0416,0,0,2.0331,2.0334,0,0,0,0,0,0,0,0,2.0063,2.0075,2.017,2.0171,2.0171,2.0228,2.0226,2.0315,2.0224,2.0203,2.0216,2.0212,2.028,2.0288,2.0311,2.042,2.0424,2.0332,2.0336,2.0338,2.034,0,0,0,0,0,0,0,2.0058,2.0072,2.0212,2.0172,2.0172,2.0162,2.017,2.0243,2.0259,2.0205,2.0202,2.0212,2.028,2.0305,2.0312,2.0425,2.0332,2.0337,2.0341,2.0344,2.0624,2.0627,0,0,0,0,0,0,2.0052,2.0067,2.0209,2.0214,2.0108,2.0168,2.0177,2.0213,2.0258,2.0262,2.0215,2.021,2.0295,2.0305,2.0315,2.044,2.0338,2.0344,2.0348,2.062,2.0624,2.0628,0,0,0,0,0,0,2.0048,2.0065,2.0206,2.014,2.0157,2.0175,2.0216,2.0217,2.0241,2.0266,2.0268,2.0237,2.0293,2.0306,2.0391,2.0443,2.0347,2.0353,2.0616,2.0621,2.0626,2.0692,0,0,0,0,0,0,2.0043,2.0064,2.0104,2.0141,2.0161,2.0281,2.0219,2.0221,2.0253,2.0247,2.0287,2.0291,2.0291,2.0382,2.0398,2.045,2.0358,2.0611,2.0618,2.0625,2.0685,2.0699,2.071,0,0,0,0,0,2.0036,2.012,2.0107,2.0124,2.0211,2.0284,2.0295,2.0293,2.0257,2.0297,2.0313,2.029,2.0434,2.0391,2.0408,2.0463,2.0608,2.0616,2.0624,2.0679,2.0696,2.071,0,0,0,0,0,0,2.009,2.0125,2.011,2.0209,2.0243,2.0277,2.0328,2.0311,2.0357,2.035,2.0346,2.0356,2.0444,2.0462,2.0413,2.0566,2.0516,2.0527,2.0552,2.0567,2.058,2.0574,2.0364,0,0,0,0,0,2.0113,2.0169,2.0196,2.028,2.0298,2.031,2.0342,2.0337,2.0373,2.0388,2.0409,2.0445,2.0498,2.0534,2.0584,2.0687,2.0695,2.0733,2.0746,2.0756,2.0767,2.0821,2.0838,2.0655,2.0655,2.0654,0,0,2.0161,2.0187,2.0223,2.0292,2.0318,2.0376,2.0323,2.0386,2.0429,2.0398,2.0479,2.0496,2.0536,2.063,2.0672,2.0647,2.0819,2.0766,2.0774,2.0779,2.0831,2.0848,2.0864,2.066,2.0659,2.0658,0,0,2.0279,2.0305,2.0377,2.0404,2.0445,2.0452,2.0469,2.0505,2.0515,2.0596,2.0573,2.0624,2.0716,2.0745,2.0772,2.0899,2.0879,2.0915,2.0981,2.1034,2.1049,2.1062,2.1106,2.1123,2.0925,2.0926,2.0926,0,2.0335,2.0421,2.0417,2.0482,2.0512,2.0485,2.0558,2.0585,2.064,2.0662,2.0633,2.0747,2.0772,2.0872,2.0903,2.0925,2.0945,2.0911,2.1047,2.106,2.1072,2.1114,2.1131,2.093,2.0929,2.0929,2.0928,0,2.0487,2.0547,2.06,2.0653,2.0689,2.0758,2.0764,2.0801,2.0793,2.0803,2.0886,2.0915,2.097,2.0993,2.0986,2.1092,2.1075,2.1047,2.0996,2.1093,2.1133,2.115,2.0936,2.0934,2.0933,2.0932,0,0,2.0642,2.0691,2.071,2.0734,2.0775,2.0822,2.0888,2.0942,2.0974,2.1012,2.1068,2.1146,2.112,2.115,2.1146,2.1193,2.1291,2.1159,2.1159,2.1182,2.1408,2.1429,2.1448,2.1277,2.128,2.1283,2.1404,0,2.0763,2.088,2.0877,2.0986,2.1041,2.1015,2.1073,2.1105,2.1116,2.1164,2.1175,2.123,2.1192,2.121,2.1255,2.1269,2.1336,2.126,2.1329,2.1332,2.132,2.1469,2.1491,2.1604,2.142,2.1422,2.1424,0,2.0919,2.0962,2.1076,2.1109,2.1132,2.1184,2.1232,2.1278,2.1313,2.1318,2.1351,2.1339,2.1406,2.1353,2.1445,2.1394,2.1422,2.1433,2.1437,2.1444,2.1384,2.1479,2.1641,2.1657,2.1449,2.1447,2.1445,0,2.1021,2.1107,2.1186,2.1206,2.1247,2.1284,2.1302,2.1334,2.1366,2.1408,2.1428,2.1478,2.1505,2.1544,2.1545,2.1506,2.1638,2.1585,2.1644,2.1644,2.1673,2.1671,2.1841,2.1691,2.1691,2.169,2.169,0,2.1156,2.1226,2.1232,2.128,2.1358,2.1354,2.1432,2.1446,2.1475,2.1526,2.1507,2.1555,2.1554,2.1603,2.1604,2.168,2.1693,2.1698,2.1697,2.17,2.1699,2.1718,2.171,2.1695,2.1694,2.1693,2.1692,0,2.1282,2.1289,2.1373,2.1404,2.1413,2.1469,2.1495,2.1541,2.1549,2.1614,2.1629,2.1642,2.1698,2.1703,2.1769,2.177,2.1861,2.1853,2.185,2.1848,2.1906,2.19,2.2094,2.2119,2.1953,2.1954,2.1956,0,2.1368,2.1421,2.1457,2.149,2.151,2.1563,2.1595,2.1593,2.1627,2.167,2.1711,2.1765,2.1808,2.1899,2.1915,2.1964,2.1956,2.2021,2.1964,2.1964,2.1957,2.1954,2.1959,2.2032,2.2034,2.2035,2.2037,0,2.1519,2.1519,2.1566,2.1614,2.1653,2.1691,2.1726,2.1754,2.1756,2.1795,2.1852,2.1886,2.1952,2.2006,2.2054,2.2073,2.2055,2.2054,2.207,2.2073,2.2069,2.2072,2.188,2.205,2.2049,2.2048,2.2047,2.2046,2.1628,2.1674,2.1706,2.1759,2.1785,2.1818,2.1862,2.1876,2.1923,2.1977,2.1972,2.2035,2.2068,2.2131,2.2153,2.2202,2.218,2.2203,2.2209,2.2215,2.2221,2.2061,2.221,2.221,2.221,2.2209,2.2209,0,2.1777,2.1797,2.1845,2.1895,2.1936,2.1915,2.1953,2.1989,2.2044,2.2076,2.2118,2.2183,2.2235,2.2254,2.2304,2.234,2.2333,2.2353,2.2351,2.2355,2.2238,2.2219,2.2358,2.2358,2.2358,2.2358,2.2358,2.2358,2.186,2.1937,2.1941,2.203,2.2048,2.2109,2.2132,2.2163,2.2188,2.2261,2.2304,2.2316,2.2342,2.2394,2.244,2.2444,2.2464,2.2487,2.2488,2.2378,2.2363,2.2349,2.2331,2.2492,2.2492,2.2601,2.2602,2.2603]}]]